Wind_Speed
13 13 12 10 11 7 1 2 10 2 6 11 13 16 19 23 25 22 20 19 21 24
15 13 10 5 3 1 5 6 2 3 7 10 10 13 17 24 26 26 26 23 25 26
13 10 7 6 5 4 1 4 1 2 4 6 9 12 16 21 23 24 26 25 27 28
9 6 5 5 4 2 2 3 2 3 6 7 9 11 14 19 22 23 26 27 27 29
10 6 5 6 3 2 6 2 3 5 7 9 10 11 12 16 19 21 24 28 29 32
8 5 11 10 7 6 6 4 4 6 10 13 15 16 16 17 19 20 21 24 27 31
10 8 8 9 11 13 11 10 9 10 11 15 18 20 20 20 16 14 17 18 19 23
6 7 9 12 14 13 13 15 17 18 21 21 21 22 20 21 21 17 17 19 21 23
5 7 10 12 15 17 18 18 18 20 23 26 27 26 24 23 24 23 23 21 22 24
10 11 12 13 14 15 17 19 21 24 27 28 29 28 29 26 24 24 23 23 23 23
11 13 13 12 12 14 16 19 24 28 29 30 31 30 30 30 28 26 25 25 23 24
5 6 9 12 14 17 19 24 28 29 29 31 32 31 30 30 30 30 29 28 26 27
11 12 14 15 17 20 20 22 24 26 28 30 32 31 28 27 27 27 29 27 26 26
17 16 16 18 20 24 25 25 28 28 30 30 32 32 30 31 32 32 29 26 25 27
Wind_Direction
206 208 219 229 243 244 99 236 186 231 304 258 259 243 250 255 257 253 257 253 250 252
203 201 204 198 197 284 109 87 146 244 277 277 254 249 253 256 258 261 259 258 256 256
194 202 195 212 210 227 135 136 186 244 283 296 274 264 261 259 260 261 262 262 258 257
163 177 165 162 178 220 190 187 109 12 343 312 282 275 265 263 266 264 265 264 256 258
140 147 180 212 200 234 178 179 298 304 309 315 319 304 296 283 279 276 272 266 263 258
141 105 88 79 69 61 53 27 330 308 307 307 302 304 305 302 298 293 286 283 279 272
57 37 11 350 337 331 326 319 318 310 298 293 296 297 298 301 308 307 303 303 301 294
15 340 324 313 310 308 308 307 305 303 299 298 292 292 292 294 307 317 313 306 308 307
304 301 300 299 299 303 306 304 303 301 299 294 291 289 285 287 297 302 304 302 302 303
271 274 276 283 289 296 304 307 306 305 300 292 287 282 284 288 288 294 296 298 296 294
268 272 279 285 293 300 304 306 306 302 297 295 290 283 280 284 288 288 289 292 292 289
299 298 295 297 300 298 297 300 301 297 294 291 290 287 283 280 283 284 286 284 283 283
353 331 312 302 300 304 306 303 301 297 294 292 290 287 286 280 275 276 281 283 282 278
341 335 320 314 309 306 307 307 297 291 291 287 285 283 278 276 272 271 272 276 275 269
Height
803 807 809 812 813 816 817 816 817 816 814 810 809 811 813 816 817 819 820 819 818 818
799 804 807 810 810 812 813 814 815 816 814 812 809 810 812 812 813 815 816 815 815 815
795 800 803 807 809 809 810 812 813 813 812 809 808 809 809 809 809 809 810 810 809 810
793 797 800 804 808 808 809 809 810 810 808 808 809 808 807 807 806 806 806 804 804 804
792 795 797 800 805 807 808 808 808 808 808 807 807 805 804 804 803 803 800 799 799 798
792 795 798 800 803 805 806 807 807 806 804 804 803 803 802 801 799 798 796 795 793 791
792 793 794 797 800 802 803 803 804 804 803 802 801 799 797 796 794 792 791 790 788 786
794 795 795 796 797 798 799 799 799 799 797 796 795 793 791 789 788 787 786 784 782 780
795 796 795 794 795 794 794 794 794 793 791 790 788 786 785 784 782 781 780 779 777 774
793 792 792 792 792 791 790 789 789 788 786 784 783 781 779 778 777 776 775 774 771 768
790 789 788 788 789 788 787 786 784 782 779 777 775 775 773 772 770 768 767 767 765 762
788 787 786 785 785 784 783 781 779 776 773 770 767 766 766 765 762 760 758 758 758 757
786 785 783 782 781 779 777 775 773 770 768 765 762 760 758 757 756 754 751 750 750 750
784 782 781 779 777 774 771 769 766 763 761 758 755 752 750 749 748 747 745 744 743 741